[[{"header":{"parameterUnit":"m.s-1","parameterCategory":1,"la1":30.2991,"la2":30.254,"lo1":-89.0895,"lo2":-89.0444,"dy":0.0017,"dx":0.0017,"nx":28,"ny":28,"refTime":"2024-08-28T03:00:00:Z","depth":0,"parameterNumber":2,"parameterNumberName":"U-component_of_WINDS"},"data":[0,0,0,0,0,0,0,0,0,0,0,0,0,0,0,0,0,0,0,0,0,0,0,0,0,0,0,0,0,0,0,0,0,0,0,0,0,0,0,0,0,0,0,0,0,0,0,0,0,0,0,0,0,0,0,0,0,0,-2.2982,-2.2982,0,-2.3003,-2.3003,-2.3003,-2.2989,-2.2989,-2.2988,-2.2988,-2.3008,-2.3009,-2.301,0,0,0,0,0,0,0,0,0,0,0,0,0,-2.293,-2.2931,-2.2982,-2.2982,-2.2983,-2.3003,-2.3003,-2.3003,-2.299,-2.2989,-2.2988,-2.2987,-2.3008,-2.3009,-2.3011,0,0,0,0,0,0,0,0,0,0,0,0,0,-2.2952,-2.2931,-2.2982,-2.2978,-2.2978,-2.3003,-2.3003,-2.3004,-2.299,-2.2989,-2.2988,-2.2987,-2.3007,-2.3009,-2.3011,-2.304,0,0,-2.3016,-2.3017,0,0,0,0,0,0,0,0,-2.2951,-2.2954,-2.2978,-2.2978,-2.2978,-2.2993,-2.2992,-2.3016,-2.299,-2.2985,-2.2988,-2.2986,-2.3004,-2.3006,-2.3012,-2.3041,-2.3042,-2.3016,-2.3017,-2.3018,-2.3018,0,0,0,0,0,0,0,-2.2949,-2.2953,-2.299,-2.2979,-2.2979,-2.2975,-2.2977,-2.2997,-2.3,-2.2986,-2.2985,-2.2987,-2.3003,-2.301,-2.3012,-2.3043,-2.3016,-2.3018,-2.3019,-2.3019,-2.3099,-2.31,0,0,0,0,0,0,-2.2948,-2.2952,-2.299,-2.2991,-2.2962,-2.2977,-2.2979,-2.2989,-2.2999,-2.3,-2.2988,-2.2987,-2.3008,-2.301,-2.3013,-2.3049,-2.3018,-2.3019,-2.302,-2.3098,-2.3099,-2.31,0,0,0,0,0,0,-2.2947,-2.2952,-2.2989,-2.2971,-2.2976,-2.2979,-2.299,-2.299,-2.2996,-2.3001,-2.3002,-2.2994,-2.3007,-2.301,-2.3034,-2.3049,-2.302,-2.3022,-2.3096,-2.3098,-2.3099,-2.312,0,0,0,0,0,0,-2.2946,-2.2951,-2.2963,-2.2971,-2.2977,-2.301,-2.2991,-2.2991,-2.2999,-2.2998,-2.3007,-2.3008,-2.3006,-2.3031,-2.3036,-2.3051,-2.3023,-2.3095,-2.3097,-2.3099,-2.3118,-2.3123,-2.3126,0,0,0,0,0,-2.2944,-2.2967,-2.2963,-2.2968,-2.2991,-2.301,-2.3013,-2.3012,-2.3001,-2.3012,-2.3015,-2.3007,-2.3047,-2.3034,-2.3039,-2.3055,-2.3094,-2.3096,-2.3099,-2.3117,-2.3122,-2.3126,0,0,0,0,0,0,-2.296,-2.2968,-2.2964,-2.2991,-2.3,-2.3008,-2.3022,-2.3017,-2.3029,-2.3027,-2.3024,-2.3026,-2.3051,-2.3055,-2.3041,-2.3084,-2.3069,-2.3072,-2.3081,-2.3086,-2.3089,-2.3088,-2.3025,0,0,0,0,0,-2.2966,-2.2982,-2.2989,-2.3012,-2.3017,-2.3019,-2.3027,-2.3025,-2.3035,-2.3038,-2.3043,-2.3052,-2.3067,-2.3077,-2.309,-2.3119,-2.3121,-2.3132,-2.3136,-2.314,-2.3142,-2.3159,-2.3164,-2.3108,-2.3108,-2.3108,0,0,-2.298,-2.2987,-2.2997,-2.3015,-2.3022,-2.3038,-2.3022,-2.304,-2.3052,-2.3041,-2.3064,-2.3068,-2.3078,-2.3104,-2.3116,-2.3109,-2.3159,-2.3143,-2.3145,-2.3146,-2.3162,-2.3167,-2.3172,-2.311,-2.3109,-2.3109,0,0,-2.3014,-2.302,-2.3041,-2.3048,-2.3059,-2.306,-2.3065,-2.3074,-2.3077,-2.31,-2.3092,-2.3107,-2.3131,-2.3139,-2.3146,-2.3184,-2.3177,-2.3189,-2.3209,-2.3225,-2.3229,-2.3233,-2.3247,-2.3252,-2.3192,-2.3192,-2.3192,0,-2.303,-2.3054,-2.3052,-2.307,-2.3079,-2.307,-2.3091,-2.3098,-2.3113,-2.3119,-2.311,-2.3142,-2.3148,-2.3177,-2.3186,-2.3192,-2.3198,-2.3187,-2.3229,-2.3233,-2.3236,-2.3249,-2.3254,-2.3193,-2.3193,-2.3193,-2.3193,0,-2.3073,-2.309,-2.3105,-2.312,-2.313,-2.315,-2.3151,-2.3162,-2.3159,-2.3161,-2.3185,-2.3192,-2.3208,-2.3214,-2.3212,-2.3243,-2.3238,-2.3229,-2.3213,-2.3243,-2.3255,-2.326,-2.3195,-2.3194,-2.3194,-2.3194,0,0,-2.3117,-2.3131,-2.3136,-2.3143,-2.3155,-2.3168,-2.3188,-2.3203,-2.3212,-2.3223,-2.3239,-2.3261,-2.3253,-2.3261,-2.326,-2.3274,-2.3304,-2.3263,-2.3263,-2.3271,-2.3339,-2.3346,-2.3352,-2.3299,-2.33,-2.3301,-2.3338,0,-2.3151,-2.3185,-2.3184,-2.3216,-2.3232,-2.3224,-2.3241,-2.325,-2.3254,-2.3267,-2.3271,-2.3286,-2.3275,-2.328,-2.3293,-2.3297,-2.3317,-2.3294,-2.3315,-2.3315,-2.3312,-2.3358,-2.3365,-2.34,-2.3343,-2.3344,-2.3344,0,-2.3196,-2.3208,-2.3242,-2.3252,-2.3258,-2.3274,-2.3288,-2.3301,-2.3312,-2.3313,-2.3323,-2.3319,-2.3339,-2.3323,-2.3351,-2.3335,-2.3343,-2.3347,-2.3348,-2.335,-2.3332,-2.3361,-2.3411,-2.3416,-2.3352,-2.3351,-2.3351,0,-2.3225,-2.325,-2.3273,-2.328,-2.3292,-2.3303,-2.3308,-2.3318,-2.3327,-2.334,-2.3346,-2.3361,-2.3369,-2.338,-2.3381,-2.3369,-2.3409,-2.3393,-2.3411,-2.3411,-2.3419,-2.3419,-2.3471,-2.3425,-2.3425,-2.3424,-2.3424,0,-2.3264,-2.3284,-2.3287,-2.3301,-2.3324,-2.3323,-2.3346,-2.3351,-2.336,-2.3375,-2.3369,-2.3384,-2.3384,-2.3398,-2.3399,-2.3422,-2.3426,-2.3427,-2.3427,-2.3428,-2.3428,-2.3433,-2.3431,-2.3426,-2.3426,-2.3425,-2.3425,0,-2.33,-2.3302,-2.3327,-2.3337,-2.334,-2.3357,-2.3365,-2.3379,-2.3382,-2.3401,-2.3406,-2.341,-2.3427,-2.3429,-2.3449,-2.3449,-2.3477,-2.3475,-2.3474,-2.3474,-2.3492,-2.349,-2.3549,-2.3557,-2.3506,-2.3506,-2.3506,0,-2.3325,-2.334,-2.3352,-2.3362,-2.3368,-2.3384,-2.3394,-2.3394,-2.3405,-2.3418,-2.3431,-2.3447,-2.3461,-2.3489,-2.3494,-2.3509,-2.3507,-2.3526,-2.3509,-2.3509,-2.3508,-2.3507,-2.3509,-2.353,-2.353,-2.3531,-2.3531,0,-2.3368,-2.3369,-2.3383,-2.3398,-2.341,-2.3422,-2.3433,-2.3442,-2.3443,-2.3455,-2.3473,-2.3484,-2.3504,-2.3521,-2.3537,-2.3542,-2.3537,-2.3537,-2.3542,-2.3543,-2.3542,-2.3543,-2.3484,-2.3535,-2.3535,-2.3535,-2.3534,-2.3534,-2.34,-2.3414,-2.3424,-2.3441,-2.3449,-2.346,-2.3474,-2.3478,-2.3493,-2.351,-2.3509,-2.3529,-2.354,-2.356,-2.3567,-2.3582,-2.3576,-2.3583,-2.3585,-2.3587,-2.3589,-2.3539,-2.3585,-2.3585,-2.3585,-2.3585,-2.3585,0,-2.3444,-2.345,-2.3466,-2.3482,-2.3495,-2.3489,-2.3501,-2.3512,-2.353,-2.354,-2.3554,-2.3575,-2.3591,-2.3598,-2.3614,-2.3625,-2.3623,-2.363,-2.3629,-2.363,-2.3594,-2.3588,-2.3631,-2.3631,-2.3631,-2.3631,-2.3631,-2.3631,-2.3468,-2.3492,-2.3494,-2.3522,-2.3528,-2.3548,-2.3555,-2.3565,-2.3573,-2.3597,-2.3611,-2.3615,-2.3624,-2.3641,-2.3656,-2.3658,-2.3664,-2.3671,-2.3672,-2.3637,-2.3633,-2.3628,-2.3623,-2.3673,-2.3673,-2.3707,-2.3708,-2.3708]},{"header":{"parameterUnit":"m.s-1","parameterCategory":1,"la1":30.2991,"la2":30.254,"lo1":-89.0895,"lo2":-89.0444,"dy":0.0017,"dx":0.0017,"nx":28,"ny":28,"refTime":"2024-08-28T03:00:00:Z","depth":0,"parameterNumber":3,"parameterNumberName":"V-component_of_WINDS"},"data":[0,0,0,0,0,0,0,0,0,0,0,0,0,0,0,0,0,0,0,0,0,0,0,0,0,0,0,0,0,0,0,0,0,0,0,0,0,0,0,0,0,0,0,0,0,0,0,0,0,0,0,0,0,0,0,0,0,0,4.5149,4.5149,0,4.5156,4.5156,4.5156,4.5166,4.5166,4.5166,4.5166,4.5168,4.5168,4.5168,0,0,0,0,0,0,0,0,0,0,0,0,0,4.5138,4.5139,4.5149,4.5149,4.5149,4.5156,4.5156,4.5156,4.5166,4.5166,4.5166,4.5166,4.5168,4.5168,4.5168,0,0,0,0,0,0,0,0,0,0,0,0,0,4.5144,4.5139,4.5149,4.5154,4.5155,4.5156,4.5156,4.5156,4.5166,4.5166,4.5166,4.5166,4.5168,4.5168,4.5168,4.5162,0,0,4.5167,4.5167,0,0,0,0,0,0,0,0,4.5144,4.5144,4.5153,4.5154,4.5155,4.516,4.5153,4.5158,4.5166,4.5161,4.5166,4.5166,4.5165,4.5165,4.5166,4.5162,4.5162,4.5167,4.5167,4.5167,4.5167,0,0,0,0,0,0,0,4.5143,4.5144,4.5151,4.5154,4.5154,4.5156,4.5157,4.5154,4.5161,4.5162,4.5162,4.5164,4.5165,4.5166,4.5166,4.5162,4.5167,4.5167,4.5167,4.5167,4.5156,4.5156,0,0,0,0,0,0,4.5143,4.5144,4.5151,4.5152,4.515,4.5156,4.5157,4.5158,4.5161,4.5162,4.5163,4.5164,4.5166,4.5166,4.5166,4.5161,4.5167,4.5167,4.5167,4.5156,4.5156,4.5155,0,0,0,0,0,0,4.5142,4.5143,4.5151,4.5148,4.5149,4.5155,4.5157,4.5158,4.5159,4.5163,4.5164,4.5163,4.5166,4.5166,4.5164,4.5161,4.5167,4.5167,4.5156,4.5156,4.5156,4.5149,0,0,0,0,0,0,4.5142,4.5143,4.5141,4.5148,4.5149,4.5149,4.5157,4.5158,4.5159,4.516,4.5163,4.5163,4.5166,4.5164,4.5163,4.5161,4.5166,4.5156,4.5156,4.5156,4.5149,4.5149,4.5148,0,0,0,0,0,4.5142,4.5137,4.5141,4.5142,4.5148,4.5149,4.515,4.5155,4.5159,4.5157,4.516,4.5163,4.5161,4.5163,4.5163,4.516,4.5157,4.5156,4.5156,4.515,4.5149,4.5148,0,0,0,0,0,0,4.5128,4.5138,4.5143,4.5141,4.5145,4.5151,4.5149,4.5153,4.5154,4.5155,4.516,4.516,4.5158,4.5158,4.5161,4.5156,4.5159,4.5159,4.5155,4.5154,4.5153,4.5153,4.5166,0,0,0,0,0,4.5125,4.5127,4.5135,4.5133,4.5135,4.5142,4.5142,4.5147,4.515,4.5151,4.5153,4.5155,4.5155,4.5154,4.5154,4.515,4.5151,4.5148,4.5147,4.5146,4.5146,4.5145,4.5144,4.5154,4.5154,4.5154,0,0,4.5118,4.5124,4.5124,4.513,4.5134,4.5135,4.5142,4.5143,4.5144,4.515,4.5149,4.5151,4.5153,4.515,4.5149,4.5151,4.5143,4.5146,4.5145,4.5145,4.5145,4.5144,4.5143,4.5154,4.5154,4.5154,0,0,4.5106,4.5111,4.5111,4.5115,4.5121,4.5126,4.5126,4.5133,4.5135,4.5135,4.5141,4.5141,4.514,4.5142,4.5143,4.5136,4.5139,4.5136,4.5131,4.513,4.5129,4.5129,4.5127,4.5126,4.5135,4.5135,4.5135,0,4.5096,4.51,4.5109,4.511,4.5113,4.5122,4.5122,4.5124,4.5129,4.513,4.5133,4.5135,4.5137,4.5135,4.5134,4.5134,4.5134,4.5135,4.5129,4.5129,4.5128,4.5127,4.5126,4.5135,4.5135,4.5135,4.5135,0,4.5088,4.5091,4.509,4.5098,4.51,4.51,4.5109,4.511,4.5115,4.5119,4.5119,4.5123,4.5124,4.5124,4.5127,4.5124,4.5126,4.5129,4.5132,4.5127,4.5125,4.5125,4.5134,4.5134,4.5134,4.5134,0,0,4.5066,4.5082,4.5081,4.5086,4.5095,4.5096,4.5097,4.5102,4.5103,4.5107,4.5108,4.5109,4.5113,4.5114,4.5118,4.5117,4.5113,4.5121,4.5121,4.512,4.5111,4.5109,4.5108,4.5116,4.5116,4.5116,4.5111,0,4.5056,4.5061,4.507,4.5071,4.5075,4.5085,4.5086,4.5091,4.5096,4.5098,4.5103,4.5104,4.5109,4.511,4.511,4.5114,4.5112,4.5114,4.5116,4.5116,4.5116,4.5108,4.5105,4.51,4.5111,4.5111,4.5111,0,4.5045,4.5052,4.5054,4.5066,4.5067,4.5068,4.5075,4.5077,4.5083,4.5087,4.509,4.5096,4.5097,4.5101,4.5103,4.5105,4.5106,4.5108,4.5108,4.5108,4.5113,4.5108,4.5099,4.5099,4.511,4.511,4.511,0,4.503,4.5039,4.5043,4.5046,4.5059,4.506,4.5065,4.5072,4.5075,4.508,4.5082,4.5086,4.5088,4.5091,4.5097,4.51,4.5099,4.5103,4.5101,4.5101,4.51,4.51,4.5092,4.5101,4.5101,4.5101,4.5101,0,4.5019,4.502,4.5037,4.5038,4.504,4.5051,4.5052,4.5058,4.5065,4.5067,4.5075,4.5077,4.5086,4.5089,4.5093,4.5095,4.5095,4.5098,4.5099,4.5098,4.5097,4.5098,4.5099,4.5101,4.5101,4.5101,4.5101,0,4.5002,4.5013,4.5017,4.5031,4.5034,4.5035,4.5046,4.5048,4.5055,4.5058,4.506,4.5069,4.5074,4.5081,4.5086,4.5089,4.509,4.5092,4.5088,4.5089,4.5088,4.5088,4.508,4.508,4.5088,4.5088,4.5088,0,4.4994,4.4995,4.501,4.5014,4.502,4.5025,4.503,4.5041,4.5044,4.5054,4.5055,4.506,4.5065,4.5071,4.5078,4.5082,4.5085,4.5082,4.5085,4.5084,4.5085,4.5086,4.5086,4.508,4.508,4.508,4.508,0,4.4978,4.4985,4.4992,4.5002,4.5007,4.5015,4.5022,4.5024,4.5037,4.504,4.5047,4.5051,4.5058,4.5064,4.507,4.5074,4.5079,4.5079,4.5079,4.5077,4.5076,4.5078,4.5087,4.5079,4.5079,4.5079,4.5079,4.5079,4.4966,4.4969,4.4981,4.4989,4.4997,4.5005,4.5008,4.5017,4.5023,4.5032,4.5037,4.5043,4.5051,4.5061,4.5065,4.5069,4.5071,4.5071,4.5071,4.5071,4.5071,4.5076,4.507,4.507,4.507,4.507,4.507,0,4.4952,4.4962,4.4969,4.4981,4.4988,4.4995,4.5005,4.5009,4.5015,4.5024,4.503,4.5037,4.5043,4.5052,4.5058,4.506,4.5063,4.5061,4.5061,4.5062,4.5068,4.5067,4.5059,4.5059,4.5059,4.5059,4.5059,4.5059,4.4946,4.4952,4.4961,4.4971,4.4979,4.4988,4.4993,4.5,4.5007,4.5016,4.5022,4.5029,4.5037,4.5045,4.5051,4.5053,4.5055,4.5053,4.5056,4.5061,4.5062,4.5063,4.5063,4.5054,4.5054,4.5051,4.5051,4.5051]}]]